GW1076 Weather Reports


time (UTC)temp
C
wind
direction
speed
KPH
gust
KPH
rain 1hr
cm
rain 24hr
cm
rain mn
cm
humidity
%
barometer
mb
20260507065033 11 28 8.0 11.3 0.00 0.10 0.00 89 1016.7
20260507064540 11 23 4.8 8.0 0.00 0.10 0.00 89 1016.9
20260507064035 11 15 4.8 9.7 0.00 0.10 0.00 89 1017.0
20260507063534 11 38 3.2 9.7 0.00 0.10 0.00 89 1016.8
20260507063050 12 20 4.8 6.4 0.00 0.10 0.00 89 1016.8
20260507062535 12 25 3.2 6.4 0.00 0.10 0.00 88 1016.8
20260507062036 12 28 4.8 6.4 0.00 0.10 0.00 88 1016.6
20260507061538 12 41 3.2 6.4 0.00 0.10 0.00 88 1016.6
20260507061036 12 47 1.6 6.4 0.00 0.10 0.00 89 1016.6
20260507060535 12 43 3.2 6.4 0.00 0.10 0.00 88 1016.6
20260507060052 12 44 3.2 6.4 0.00 0.10 0.00 88 1016.5
20260507055534 12 44 1.6 4.8 0.00 0.10 0.00 87 1016.7
20260507055033 12 26 1.6 3.2 0.00 0.10 0.00 87 1016.7
20260507054548 12 0 0.0 3.2 0.00 0.10 0.00 87 1016.6
20260507054035 12 51 0.0 6.4 0.00 0.10 0.00 87 1016.5
20260507053536 12 52 3.2 9.7 0.00 0.10 0.00 87 1016.5
20260507053054 12 75 3.2 9.7 0.00 0.10 0.00 87 1016.4
20260507052531 12 54 3.2 9.7 0.00 0.10 0.00 87 1016.4
20260507052036 12 52 4.8 8.0 0.00 0.10 0.00 86 1016.4
20260507051615 12 37 4.8 9.7 0.00 0.10 0.00 86 1016.2
20260507051039 12 62 4.8 9.7 0.00 0.10 0.00 86 1016.2
20260507050536 12 62 4.8 8.0 0.00 0.10 0.00 86 1016.2
20260507050038 12 56 3.2 9.7 0.00 0.10 0.00 86 1016.2
20260507045538 12 66 4.8 12.9 0.00 0.10 0.10 86 1016.1
20260507045035 12 58 6.4 12.9 0.00 0.10 0.10 85 1016.1
20260507044556 12 44 4.8 12.9 0.00 0.10 0.10 85 1016.1
20260507044035 12 47 4.8 12.9 0.00 0.10 0.10 85 1015.9
20260507043536 12 51 6.4 12.9 0.00 0.10 0.10 85 1016.1
20260507043044 12 37 6.4 12.9 0.00 0.10 0.10 85 1015.9
20260507042536 12 57 6.4 12.9 0.00 0.10 0.10 86 1015.8
20260507042037 12 28 4.8 9.7 0.00 0.10 0.10 86 1015.8
20260507041543 12 17 4.8 9.7 0.00 0.10 0.10 85 1015.8
20260507041036 12 26 4.8 9.7 0.00 0.10 0.10 85 1016.0
20260507040541 12 57 4.8 9.7 0.00 0.10 0.10 85 1015.9
20260507040042 12 20 4.8 9.7 0.00 0.10 0.10 85 1015.9
20260507035535 12 36 3.2 6.4 0.00 0.10 0.10 85 1015.9
20260507035035 12 39 3.2 6.4 0.00 0.10 0.10 85 1016.0
20260507034548 13 43 1.6 6.4 0.00 0.10 0.10 84 1016.0
20260507034036 13 25 3.2 8.0 0.00 0.10 0.10 84 1015.9
20260507033535 13 49 3.2 8.0 0.00 0.10 0.10 84 1015.8
20260507033048 13 36 3.2 8.0 0.00 0.10 0.10 84 1016.0
20260507032535 13 36 1.6 8.0 0.00 0.10 0.10 83 1016.0
20260507032038 13 42 4.8 6.4 0.00 0.10 0.10 83 1016.0
20260507031547 13 28 1.6 8.0 0.00 0.10 0.10 82 1015.9
20260507031035 13 4 4.8 8.0 0.00 0.10 0.10 82 1016.0
20260507030538 13 11 4.8 9.7 0.00 0.10 0.10 82 1015.9
20260507030048 13 33 4.8 9.7 0.00 0.10 0.10 82 1015.8
20260507025533 13 33 4.8 9.7 0.00 0.10 0.10 81 1015.8
20260507025035 13 49 3.2 4.8 0.00 0.10 0.10 81 1015.8
20260507024549 14 50 1.6 6.4 0.00 0.10 0.10 81 1015.9
20260507024036 14 32 3.2 6.4 0.00 0.10 0.10 80 1015.9
20260507023537 14 46 3.2 8.0 0.00 0.10 0.10 80 1015.6
20260507023040 14 39 3.2 9.7 0.00 0.10 0.10 79 1015.4
20260507022536 15 358 6.4 12.9 0.00 0.10 0.10 79 1015.4
20260507022034 15 24 8.0 12.9 0.00 0.10 0.10 78 1015.3
20260507021539 15 23 8.0 12.9 0.00 0.10 0.10 78 1015.3
20260507021033 15 32 6.4 12.9 0.00 0.10 0.10 78 1015.3
20260507020535 15 20 8.0 12.9 0.00 0.10 0.10 78 1015.2
20260507020047 15 8 8.0 16.1 0.00 0.10 0.10 77 1015.2
20260507015535 16 13 9.7 16.1 0.00 0.10 0.10 77 1015.1
20260507015035 16 15 9.7 16.1 0.00 0.10 0.10 77 1014.9
20260507014544 16 343 6.4 12.9 0.00 0.10 0.10 77 1014.9
20260507014037 16 359 4.8 9.7 0.00 0.10 0.10 77 1014.7
20260507013541 16 319 4.8 12.9 0.00 0.10 0.10 77 1014.6
20260507013055 16 343 6.4 14.5 0.00 0.10 0.10 76 1014.5
20260507012537 16 15 9.7 14.5 0.00 0.10 0.10 76 1014.3
20260507012036 17 1 6.4 14.5 0.00 0.10 0.10 78 1014.2
20260507011543 17 354 3.2 6.4 0.00 0.10 0.10 77 1014.1
20260507011036 17 44 0.0 3.2 0.00 0.10 0.10 77 1014.0
20260507010536 17 0 0.0 1.6 0.00 0.10 0.10 76 1013.9
20260507010044 17 0 0.0 1.6 0.00 0.10 0.10 76 1013.9
20260507005535 17 0 0.0 3.2 0.00 0.10 0.10 76 1013.7
20260507005036 17 86 0.0 3.2 0.00 0.10 0.10 75 1013.7
20260507004539 17 0 0.0 3.2 0.00 0.10 0.10 75 1013.6
20260507004036 18 79 0.0 6.4 0.00 0.10 0.10 74 1013.6
20260507003540 18 0 0.0 8.0 0.00 0.10 0.10 74 1013.6
20260507003039 18 84 3.2 9.7 0.00 0.10 0.10 74 1013.5
20260507002536 18 61 6.4 9.7 0.00 0.10 0.10 72 1013.5
20260507002037 18 94 6.4 9.7 0.00 0.10 0.10 72 1013.5
20260507001543 19 54 3.2 9.7 0.00 0.10 0.10 71 1013.3
20260507001036 19 63 3.2 9.7 0.00 0.10 0.10 71 1013.2
20260507000536 19 74 6.4 11.3 0.00 0.10 0.10 70 1013.3
20260507000046 19 74 6.4 11.3 0.00 0.10 0.10 69 1013.4
20260506235536 19 71 4.8 8.0 0.00 0.10 0.10 71 1013.2
20260506235029 19 44 4.8 12.9 0.00 0.10 0.10 69 1013.2
20260506234555 19 34 4.8 12.9 0.00 0.10 0.10 70 1013.2
20260506234033 19 71 6.4 11.3 0.00 0.10 0.10 68 1013.1
20260506233531 19 78 4.8 14.5 0.00 0.10 0.10 69 1013.1
20260506233048 19 71 8.0 14.5 0.00 0.10 0.10 69 1013.1
20260506232532 19 69 9.7 14.5 0.00 0.10 0.10 70 1013.0
20260506232031 19 79 6.4 9.7 0.00 0.10 0.10 70 1013.0
20260506231543 18 45 4.8 9.7 0.00 0.10 0.10 70 1013.1
20260506231030 18 77 4.8 9.7 0.00 0.10 0.10 70 1013.0
20260506230530 19 62 4.8 9.7 0.00 0.10 0.10 70 1013.0
20260506230046 19 84 4.8 9.7 0.00 0.10 0.10 70 1013.0
20260506225533 19 64 4.8 11.3 0.00 0.10 0.10 71 1012.8
20260506225030 18 39 6.4 11.3 0.00 0.10 0.10 70 1012.8
20260506224556 18 4 6.4 11.3 0.00 0.10 0.10 68 1012.7
20260506224032 18 51 6.4 11.3 0.00 0.10 0.10 69 1012.7
20260506223529 18 18 6.4 11.3 0.00 0.10 0.10 70 1012.8
20260506223040 18 41 4.8 11.3 0.00 0.10 0.10 70 1012.8
20260506222534 18 54 3.2 12.9 0.00 0.10 0.10 71 1012.7
20260506222034 18 75 4.8 12.9 0.00 0.10 0.10 70 1012.7
20260506221539 18 55 6.4 12.9 0.00 0.10 0.10 70 1012.6
20260506221034 18 63 6.4 11.3 0.00 0.10 0.10 70 1012.7
20260506220533 18 23 6.4 12.9 0.00 0.10 0.10 70 1012.6
20260506220039 18 349 6.4 12.9 0.00 0.10 0.10 69 1012.6
20260506215533 18 14 6.4 12.9 0.00 0.10 0.10 70 1012.7
20260506215030 18 52 6.4 12.9 0.00 0.10 0.10 69 1012.8
20260506214539 18 54 6.4 11.3 0.00 0.10 0.10 69 1012.9
20260506214032 18 58 6.4 11.3 0.00 0.10 0.10 71 1012.9
20260506213530 18 91 4.8 14.5 0.00 0.10 0.10 72 1012.9
20260506213044 18 353 8.0 14.5 0.00 0.10 0.10 69 1013.1
20260506212533 18 16 6.4 12.9 0.00 0.10 0.10 69 1012.9
20260506212033 18 48 6.4 14.5 0.00 0.10 0.10 72 1012.8
20260506211543 17 59 6.4 14.5 0.00 0.10 0.10 71 1013.1
20260506211030 17 2 6.4 12.9 0.00 0.10 0.10 71 1013.1
20260506210533 17 37 6.4 12.9 0.00 0.10 0.10 72 1013.1
20260506210041 17 62 4.8 9.7 0.00 0.10 0.10 71 1013.4
20260506205532 17 329 6.4 11.3 0.00 0.10 0.10 70 1013.2
20260506205035 17 27 4.8 14.5 0.00 0.10 0.10 71 1013.2
20260506204538 17 344 6.4 14.5 0.00 0.10 0.10 72 1013.2
20260506204035 17 13 4.8 14.5 0.00 0.10 0.10 73 1013.4
20260506203535 17 18 6.4 14.5 0.00 0.10 0.10 73 1013.2
20260506203046 17 17 8.0 14.5 0.00 0.10 0.10 72 1013.5
20260506202536 16 345 3.2 12.9 0.00 0.10 0.10 73 1013.5
20260506202035 16 310 8.0 14.5 0.00 0.10 0.10 73 1013.5
20260506201543 16 340 6.4 19.3 0.00 0.10 0.10 74 1013.6
20260506201034 16 44 9.7 19.3 0.00 0.10 0.10 73 1013.5
20260506200534 16 53 6.4 16.1 0.00 0.10 0.10 73 1013.7
20260506200043 16 15 11.3 16.1 0.00 0.10 0.10 73 1013.8
20260506195535 16 333 4.8 12.9 0.00 0.10 0.10 73 1013.8
20260506195036 16 16 6.4 12.9 0.00 0.10 0.10 74 1013.9
20260506194555 16 19 6.4 9.7 0.00 0.10 0.10 75 1014.1
20260506194035 16 23 6.4 16.1 0.00 0.10 0.10 75 1014.0
20260506193537 16 349 4.8 16.1 0.00 0.10 0.10 76 1014.0
20260506193038 16 13 11.3 16.1 0.00 0.10 0.10 74 1014.4
20260506192532 16 30 8.0 14.5 0.00 0.10 0.10 75 1014.3
20260506192032 16 13 6.4 14.5 0.00 0.10 0.10 75 1014.1
20260506191546 16 16 9.7 17.7 0.00 0.10 0.10 77 1014.2
20260506191035 15 25 4.8 17.7 0.00 0.10 0.10 78 1014.4
20260506190538 15 20 8.0 17.7 0.00 0.10 0.10 76 1014.4
20260506190047 15 349 6.4 12.9 0.00 0.10 0.10 80 1014.5
20260506185535 14 11 8.0 12.9 0.00 0.10 0.10 79 1014.5
20260506185035 14 19 8.0 16.1 0.00 0.10 0.10 79 1014.6
20260506184544 14 48 11.3 19.3 0.00 0.10 0.10 81 1014.7
20260506184035 14 39 11.3 19.3 0.00 0.10 0.10 80 1014.9
20260506183535 13 347 9.7 14.5 0.00 0.10 0.10 82 1014.6
20260506183043 13 15 6.4 14.5 0.00 0.10 0.10 82 1014.5
20260506182535 13 357 8.0 16.1 0.00 0.10 0.10 81 1015.0
20260506182035 13 30 8.0 16.1 0.00 0.10 0.10 82 1014.7
20260506181545 13 20 11.3 16.1 0.00 0.10 0.10 83 1014.7
20260506181036 13 300 6.4 16.1 0.00 0.10 0.10 85 1014.7
20260506180536 12 338 8.0 16.1 0.00 0.10 0.10 85 1014.7
20260506180052 12 319 6.4 16.1 0.00 0.10 0.10 86 1014.7
20260506175536 12 11 8.0 16.1 0.00 0.10 0.10 86 1014.8
20260506175032 12 322 8.0 16.1 0.00 0.10 0.10 86 1014.8
20260506174548 12 323 8.0 17.7 0.00 0.10 0.10 87 1014.6
20260506174032 12 14 9.7 20.9 0.00 0.10 0.10 89 1014.7
20260506173539 11 349 12.9 20.9 0.00 0.10 0.10 87 1014.7
20260506173048 11 53 11.3 17.7 0.00 0.10 0.10 88 1014.7
20260506172534 11 352 11.3 17.7 0.00 0.10 0.10 89 1014.9
20260506172036 11 5 9.7 19.3 0.00 0.10 0.10 89 1015.0
20260506171553 11 323 8.0 19.3 0.00 0.10 0.10 90 1015.0
20260506171035 11 9 11.3 19.3 0.00 0.10 0.10 90 1014.8
20260506170535 11 326 11.3 27.4 0.00 0.10 0.10 91 1014.7
20260506170043 11 26 14.5 27.4 0.00 0.10 0.10 90 1014.4
20260506165534 11 37 14.5 22.5 0.00 0.10 0.10 91 1014.3
20260506165036 11 319 16.1 22.5 0.00 0.10 0.10 91 1014.5
20260506164539 11 33 11.3 22.5 0.00 0.10 0.10 91 1014.6
20260506164035 11 17 16.1 22.5 0.00 0.10 0.10 91 1014.4
20260506163532 11 24 12.9 19.3 0.00 0.10 0.10 90 1014.8
20260506163049 11 15 8.0 17.7 0.00 0.10 0.10 91 1014.9
20260506162533 11 345 6.4 17.7 0.00 0.10 0.10 91 1015.0
20260506162033 10 32 11.3 17.7 0.00 0.10 0.10 92 1014.6
20260506161538 10 23 9.7 16.1 0.00 0.10 0.10 91 1014.5
20260506161033 10 29 8.0 17.7 0.00 0.10 0.10 92 1014.5
20260506160533 10 15 11.3 17.7 0.00 0.10 0.10 92 1014.2
20260506160046 10 328 12.9 17.7 0.00 0.10 0.10 92 1014.3
20260506155533 10 17 11.3 19.3 0.00 0.10 0.10 92 1014.0
20260506155036 10 23 14.5 19.3 0.00 0.10 0.10 91 1014.1
20260506154606 10 23 9.7 22.5 0.00 0.10 0.10 91 1013.9
20260506154033 10 41 12.9 22.5 0.00 0.10 0.10 91 1014.2
20260506153536 11 25 8.0 20.9 0.00 0.10 0.10 91 1014.1
20260506153047 11 44 9.7 24.1 0.00 0.10 0.10 91 1013.9
20260506152532 11 13 14.5 25.7 0.00 0.10 0.10 90 1013.6
20260506152033 11 27 17.7 30.6 0.03 0.10 0.10 89 1013.4
20260506151541 11 27 19.3 30.6 0.03 0.10 0.10 90 1013.0
20260506151035 11 28 22.5 30.6 0.05 0.10 0.10 91 1012.6
20260506150535 10 25 17.7 25.7 0.05 0.10 0.10 91 1013.0
20260506150052 10 49 12.9 20.9 0.05 0.10 0.10 92 1013.4
20260506145536 10 30 11.3 19.3 0.08 0.10 0.10 92 1013.7
20260506145033 10 32 9.7 25.7 0.08 0.10 0.10 92 1013.9
20260506144546 10 34 11.3 25.7 0.08 0.10 0.10 93 1013.9
20260506144033 10 10 12.9 19.3 0.08 0.10 0.10 93 1013.7
20260506143533 10 30 12.9 19.3 0.10 0.10 0.10 92 1013.8
20260506143042 10 51 8.0 19.3 0.10 0.10 0.10 92 1013.8
20260506142533 10 32 9.7 19.3 0.10 0.10 0.10 92 1013.8
20260506142029 10 9 12.9 19.3 0.08 0.08 0.08 91 1013.8
20260506141539 10 30 11.3 16.1 0.08 0.08 0.08 91 1014.4
20260506141031 10 345 6.4 14.5 0.05 0.05 0.05 91 1014.9
20260506140534 10 319 8.0 19.3 0.05 0.05 0.05 91 1015.1
20260506140054 10 349 9.7 19.3 0.05 0.05 0.05 91 1014.9
20260506135533 10 344 6.4 12.9 0.03 0.03 0.03 91 1014.7
20260506135032 10 23 6.4 24.1 0.03 0.03 0.03 90 1014.8
20260506134541 10 342 4.8 24.1 0.03 0.03 0.03 89 1015.2
20260506134032 10 359 16.1 24.1 0.03 0.03 0.03 89 1014.3
20260506133531 10 37 14.5 24.1 0.00 0.00 0.00 87 1014.1
20260506133052 10 25 12.9 19.3 0.00 0.00 0.00 86 1014.4
20260506132534 10 327 6.4 24.1 0.00 0.00 0.00 86 1015.4
20260506132030 10 309 9.7 24.1 0.00 0.00 0.00 86 1014.8
20260506131544 10 23 16.1 24.1 0.00 0.00 0.00 85 1012.9
20260506131031 11 51 16.1 27.4 0.00 0.00 0.00 85 1013.3
20260506130533 11 24 17.7 27.4 0.00 0.00 0.00 85 1013.4
20260506130044 11 44 12.9 22.5 0.00 0.00 0.00 85 1013.2
20260506125532 11 3 8.0 22.5 0.00 0.00 0.00 85 1014.0
20260506125032 11 7 9.7 24.1 0.00 0.00 0.00 86 1014.3
20260506124540 11 349 14.5 24.1 0.00 0.00 0.00 85 1013.9
20260506124032 11 333 11.3 20.9 0.00 0.00 0.00 86 1013.5
20260506123533 11 21 9.7 19.3 0.00 0.00 0.00 86 1013.4
20260506123039 11 23 9.7 19.3 0.00 0.00 0.00 86 1013.1
20260506122532 11 332 9.7 17.7 0.00 0.00 0.00 86 1012.9
20260506122036 11 355 11.3 25.7 0.00 0.00 0.00 86 1012.5
20260506121544 11 20 16.1 25.7 0.00 0.00 0.00 86 1012.3
20260506121033 11 336 14.5 22.5 0.00 0.00 0.00 86 1012.1
20260506120533 11 32 14.5 24.1 0.00 0.00 0.00 86 1012.1
20260506120047 11 44 17.7 24.1 0.00 0.00 0.00 86 1012.0
20260506115530 11 21 14.5 24.1 0.00 0.00 0.00 86 1011.9
20260506115030 11 342 16.1 24.1 0.00 0.00 0.00 86 1011.9
20260506114541 11 10 11.3 27.4 0.00 0.00 0.00 85 1011.9
20260506114033 11 13 12.9 27.4 0.00 0.00 0.00 85 1012.0
20260506113533 11 25 12.9 20.9 0.00 0.00 0.00 86 1012.0
20260506113047 11 2 12.9 19.3 0.00 0.00 0.00 85 1012.0
20260506112535 11 18 9.7 20.9 0.00 0.00 0.00 85 1012.1
20260506112034 11 323 11.3 22.5 0.00 0.00 0.00 85 1012.1
20260506111552 11 17 14.5 22.5 0.00 0.00 0.00 84 1012.0
20260506111035 12 53 12.9 19.3 0.00 0.00 0.00 84 1011.8
20260506110533 12 340 12.9 19.3 0.00 0.00 0.00 84 1011.9
20260506110048 12 342 8.0 19.3 0.00 0.00 0.00 85 1011.9
20260506105533 12 344 12.9 19.3 0.00 0.00 0.00 84 1011.9
20260506105033 12 348 12.9 20.9 0.00 0.00 0.00 84 1011.8
20260506104554 12 11 14.5 20.9 0.00 0.00 0.00 84 1011.7
20260506104030 12 317 12.9 19.3 0.00 0.00 0.00 84 1011.5
20260506103533 12 327 12.9 22.5 0.00 0.00 0.00 84 1011.4
20260506103043 12 331 12.9 22.5 0.00 0.00 0.00 85 1011.4
20260506102534 12 355 12.9 19.3 0.00 0.00 0.00 84 1011.2
20260506102034 12 47 11.3 16.1 0.00 0.00 0.00 85 1010.9
20260506101548 12 38 11.3 17.7 0.00 0.00 0.00 84 1010.8
20260506101032 12 8 11.3 17.7 0.00 0.00 0.00 85 1010.9
20260506100532 12 34 9.7 17.7 0.00 0.00 0.00 85 1010.8
20260506100046 12 4 11.3 17.7 0.00 0.00 0.00 85 1010.7
20260506095535 12 352 11.3 20.9 0.00 0.00 0.00 85 1010.5
20260506095033 12 20 12.9 20.9 0.00 0.00 0.00 84 1010.6
20260506094547 12 344 12.9 19.3 0.00 0.00 0.00 85 1010.6
20260506094033 12 13 9.7 17.7 0.00 0.00 0.00 85 1010.7
20260506093532 12 27 8.0 20.9 0.00 0.00 0.00 85 1010.7
20260506093047 12 23 11.3 20.9 0.00 0.00 0.00 85 1010.6
20260506092533 12 1 11.3 20.9 0.00 0.00 0.00 85 1010.4
20260506092033 12 307 11.3 19.3 0.00 0.00 0.00 85 1010.4
20260506091544 12 345 9.7 17.7 0.00 0.00 0.00 85 1010.3
20260506091034 12 350 8.0 17.7 0.00 0.00 0.00 85 1010.3
20260506090533 12 34 9.7 17.7 0.00 0.00 0.00 85 1010.1
20260506090041 12 357 8.0 17.7 0.00 0.00 0.00 85 1010.3
20260506085533 12 6 11.3 17.7 0.00 0.00 0.00 85 1010.3
20260506085033 12 16 9.7 20.9 0.00 0.00 0.00 85 1010.1
20260506084544 12 8 11.3 20.9 0.00 0.00 0.00 85 1010.0
20260506084033 12 353 11.3 16.1 0.00 0.00 0.00 85 1010.1
20260506083539 12 359 8.0 16.1 0.00 0.00 0.00 86 1010.1
20260506083050 12 335 8.0 16.1 0.00 0.00 0.00 86 1010.3
20260506082532 12 8 11.3 16.1 0.00 0.00 0.00 86 1010.2
20260506082036 12 33 9.7 16.1 0.00 0.00 0.00 87 1010.1
20260506081552 12 345 9.7 16.1 0.00 0.00 0.00 87 1010.1
20260506081039 12 27 9.7 14.5 0.00 0.00 0.00 86 1010.0
20260506080532 12 8 8.0 14.5 0.00 0.00 0.00 86 1010.0
20260506073043 13 347 4.8 14.5 0.00 0.00 0.00 86 1009.8
20260506072536 13 357 6.4 16.1 0.00 0.00 0.00 86 1009.8
20260506072033 13 350 9.7 16.1 0.00 0.00 0.00 85 1009.9
20260506071542 13 330 8.0 16.1 0.00 0.00 0.00 85 1009.9
20260506071033 13 13 6.4 16.1 0.00 0.00 0.00 85 1009.8
20260506070538 13 2 8.0 16.1 0.00 0.00 0.00 84 1009.9